Showing default

EUTE 5W B, 44624

Orbit data source: Space-Track

EUTE 5W B, 44624 is a payload satellite owned by EutelsatSA (FR) in GEO that was launched on Wed, 09 Oct 2019 UTC via a PROTON-M/BRIZ-M launch vehicle from the Tyuratam Missile And Space Complex (TTMTR). Payload-class satellites include a variety of spacecraft equipped with specific instruments for various scientific and technological missions. These include communications satellites like Starlink; space stations such as the ISS; scientific satellites like the Hubble; Earth observation satellites from companies like Planet Labs, Umbra, and HawkEye 360; GPS; miniature CubeSats for education and research; and military/defense satellites.

Not visible in the next 10 days
Identifier
44624, 2019-067A
Orbit
GEO
Last TLE update
15 hours ago
Origin
Manufacturer
NGIS SSG
Mission
Partially operational Commercial Communications
Bus & Motor
GEOSTAR-2, IHI BT-4?
Mass
2,864 kg wet, ~2,200 kg dry
Launch date (UTC)
2019-10-09 (6 years ago)
Launch vehicle
PROTON-M/BRIZ-M
Launch site
Tyuratam Missile And Space Complex (TTMTR)
Object type
Payload
Rocket body
Debris
Shape & HBR
Box + 2 Pan, Unknown HBR
Radar Cross Section
28.221 m², Large (>1 m²)

Expand to show TLE details & history

TLE from 15 hours ago
0 EUTE 5W B
1 44624U 19067A   25187.34903178 -.00000025  00000-0  00000-0 0  9999
2 44624   0.0760 326.0329 0003376 138.1620 301.0295  1.00271352 20968
Epoch: 2025-07-06T08:22Z
TLE epoch observation values (Epoch: 2025-07-06T08:22:36.345Z)
Latitude
0.08645°
Longitude
-5.03282°
Altitude
35,778.815 km
Speed
3.075 km/s
True Right ascension
03h 00m 46s
True Declination
0° 05' 11"
Sunlit
Object was in daylight at epoch
Visualization orbit readout
Latitude
-0.08006°
Longitude
-136.0633°
Altitude
35,800.285 km
Speed
3.074 km/s
Apparent Right ascension
18h 42m 13s
Apparent Declination
-5° 26' 49"
Sunlit
Object is in daylight
Visualization observer readout
Local Sidereal Time
11:36:09
Azimuth
83.496° E
Elevation
-16.14°
Doppler factor
1
Orbital elements
Apogee altitude
35,802.022 km
Perigee altitude
35,773.552 km
Semi-major axis
42,165.924 km
Eccentricity
0.00034
Inclination
0.076°
RAAN
326.0329°
Arg. of periapsis
138.162°
True anomaly
Unknown
Mean anomaly
301.0295°
Eccentric anomaly
Unknown
Mean motion
0.25067 °/min
Orbital period
1,436.16 mins
BSTAR
0
Loading historical data...
44624 neighbors
Loading maneuver chart data...
Loading SW <> Apogee altitude chart data...
Loading historical data...
Loading historical data...
Loading historical data...
Loading historical data...
Loading historical data...
Loading historical data...
Loading historical data...
Other satellites on launch #67 in the year 2019 (2019-10-09 UTC)

EUTE 5W B Visibility

Observer location: undefined°, undefined°

EUTE 5W B is likely not visible in the next few days
Span
Click to sort rows by Start time (UTC) header in descending order
Start Az.
Max El. time (UTC)
Max El. Az.
Max El.
End time (UTC)
End Az.
|